Location: Dappach
(48.9767°N, 9.6998°E)
Time: 06:02:28
(UTC+00:00)

COSMOS 2428 - Pass Details

Date: 14 August 2024
Orbit: 842 x 857 km, 70.9° (Epoch: 16 September)

Event Time Altitude Azimuth Distance (km) Brightness Sun altitude
Exits shadow 01:23:11 43° 237° (WSW) 1,183 3.0 -21.7°
Maximum altitude 01:25:00 66° 302° (WNW) 927 2.8 -21.5°
Drops below altitude 10° 01:30:41 10° 24° (NNE) 2,491 6.3 -21.0°
Sets 01:33:11 0° 28° (NNE) 3,433 7.4 -20.8°
